DAL11 KLAX-YMML

Flight info

Callsign DAL11
Flight time N/A
Altitude 32000
Route SUMMR2 FICKY B581 BALKS/N0492F340 B581 CAMOS/N0486F360 B581 WOSLU/N0479F380 B581 BIDNA/N0472F400 B581 NN A579 UBLIN DCT 30S160E DCT WARTY DCT RIKNI DCT OMLAV Q15 WOL H65 LEECE Q29 BOOIN DCT BOOIN
Aircraft A339/H-SADE1E2E3GHIJ3J5M1P2RWXY/LB2D1

Departure

Time 2026-04-21 04:23
Airport Los Angeles International Airport (KLAX)

Arrival

Time N/A
Airport Melbourne Airport (YMML)
Time Latitude Longitude Altitude Speed Heading
2026-04-21 04:01 33.94680 -118.40637 131 ft 0 kts 257°
2026-04-21 04:12 33.94681 -118.40634 131 ft 2 kts 257°
2026-04-21 04:12 33.94686 -118.40605 129 ft 4 kts 257°
2026-04-21 04:13 33.94692 -118.40575 126 ft 4 kts 256°
2026-04-21 04:13 33.94696 -118.40556 126 ft 0 kts 256°
2026-04-21 04:16 33.94696 -118.40557 126 ft 1 kts 256°
2026-04-21 04:16 33.94694 -118.40565 126 ft 1 kts 255°
2026-04-21 04:16 33.94694 -118.40568 126 ft 0 kts 262°
2026-04-21 04:16 33.94733 -118.40577 127 ft 8 kts
2026-04-21 04:17 33.94788 -118.40589 128 ft 8 kts 339°
2026-04-21 04:17 33.94804 -118.40594 128 ft 8 kts 347°
2026-04-21 04:17 33.94849 -118.40585 127 ft 5 kts 32°
2026-04-21 04:18 33.94865 -118.40548 127 ft 5 kts 67°
2026-04-21 04:18 33.94874 -118.40511 127 ft 5 kts 76°
2026-04-21 04:18 33.94879 -118.40473 128 ft 4 kts 82°
2026-04-21 04:18 33.94883 -118.40438 128 ft 4 kts 83°
2026-04-21 04:19 33.94885 -118.40403 129 ft 4 kts 86°
2026-04-21 04:19 33.94887 -118.40370 130 ft 4 kts 85°
2026-04-21 04:19 33.94889 -118.40338 127 ft 4 kts 85°
2026-04-21 04:19 33.94892 -118.40308 129 ft 4 kts 84°
2026-04-21 04:20 33.94895 -118.40278 130 ft 3 kts 83°
2026-04-21 04:20 33.94898 -118.40251 129 ft 3 kts 83°
2026-04-21 04:20 33.94901 -118.40224 128 ft 3 kts 81°
2026-04-21 04:20 33.94904 -118.40200 126 ft 3 kts 81°
2026-04-21 04:21 33.94908 -118.40175 128 ft 3 kts 81°
2026-04-21 04:21 33.94915 -118.40115 128 ft 11 kts 82°
2026-04-21 04:21 33.94925 -118.40020 131 ft 11 kts 81°
2026-04-21 04:21 33.94947 -118.39933 130 ft 10 kts 55°
2026-04-21 04:22 33.95011 -118.39915 128 ft 9 kts 354°
2026-04-21 04:22 33.95037 -118.39965 125 ft 6 kts 281°
2026-04-21 04:22 33.95030 -118.40061 131 ft 33 kts 264°
2026-04-21 04:22 33.94968 -118.40590 131 ft 96 kts 263°
2026-04-21 04:23 33.94909 -118.41216 131 ft 132 kts 263°
2026-04-21 04:23 33.94740 -118.42954 167 ft 181 kts 265°
2026-04-21 04:23 33.94650 -118.43921 515 ft 177 kts 264°
2026-04-21 04:23 33.94442 -118.45884 1317 ft 176 kts 265°
2026-04-21 04:24 33.94389 -118.47318 1917 ft 176 kts 271°
2026-04-21 04:24 33.94398 -118.48857 2160 ft 193 kts 271°
2026-04-21 04:24 33.94385 -118.50540 2330 ft 212 kts 270°
2026-04-21 04:24 33.94265 -118.52354 2478 ft 230 kts 264°
2026-04-21 04:25 33.94087 -118.54302 2691 ft 243 kts 264°
2026-04-21 04:25 33.93908 -118.56285 3118 ft 246 kts 264°
2026-04-21 04:25 33.93726 -118.58362 3275 ft 260 kts 264°
2026-04-21 04:25 33.93546 -118.60499 3768 ft 259 kts 264°
2026-04-21 04:26 33.93371 -118.62640 4212 ft 262 kts 264°
2026-04-21 04:26 33.93255 -118.64074 4522 ft 264 kts 264°
2026-04-21 04:26 33.93084 -118.66236 5028 ft 265 kts 263°
2026-04-21 04:26 33.92913 -118.68403 5420 ft 269 kts 263°
2026-04-21 04:27 33.92678 -118.71366 6067 ft 270 kts 263°
2026-04-21 04:27 33.92501 -118.73584 6553 ft 272 kts 262°
2026-04-21 04:27 33.92324 -118.75812 6988 ft 274 kts 262°
2026-04-21 04:27 33.92151 -118.77990 7466 ft 274 kts 262°
2026-04-21 04:28 33.92032 -118.79491 7750 ft 276 kts 262°
2026-04-21 04:28 33.91852 -118.81761 8234 ft 276 kts 261°
2026-04-21 04:28 33.91723 -118.84039 8696 ft 280 kts 267°
2026-04-21 04:28 33.91804 -118.86357 9151 ft 282 kts 269°
2026-04-21 04:29 33.91891 -118.88682 9623 ft 284 kts 268°
2026-04-21 04:29 33.91965 -118.91019 10097 ft 285 kts 268°
2026-04-21 04:29 33.92032 -118.93389 10274 ft 298 kts 268°
2026-04-21 04:29 33.92120 -118.96768 10458 ft 315 kts 268°
2026-04-21 04:30 33.92165 -118.98491 10540 ft 324 kts 268°
2026-04-21 04:30 33.92042 -119.01195 10746 ft 328 kts 257°
2026-04-21 04:30 33.91478 -119.03854 11201 ft 326 kts 247°
2026-04-21 04:30 33.90596 -119.06290 11626 ft 325 kts 242°
2026-04-21 04:31 33.89674 -119.08730 12075 ft 327 kts 243°
2026-04-21 04:31 33.88766 -119.11206 12510 ft 328 kts 243°
2026-04-21 04:31 33.87862 -119.13702 12960 ft 329 kts 243°
2026-04-21 04:31 33.86973 -119.16156 13387 ft 331 kts 243°
2026-04-21 04:32 33.86070 -119.18643 13830 ft 332 kts 243°
2026-04-21 04:32 33.85178 -119.21094 14222 ft 334 kts 243°
2026-04-21 04:32 33.84266 -119.23595 14572 ft 336 kts 243°
2026-04-21 04:32 33.83323 -119.26179 14991 ft 337 kts 243°
2026-04-21 04:33 33.82383 -119.28756 15383 ft 338 kts 243°
2026-04-21 04:33 33.81441 -119.31330 15745 ft 340 kts 242°
2026-04-21 04:33 33.80331 -119.33822 16086 ft 339 kts 233°
2026-04-21 04:33 33.78871 -119.35979 16440 ft 338 kts 223°
2026-04-21 04:34 33.77102 -119.37798 16809 ft 338 kts 214°
2026-04-21 04:34 33.75206 -119.39482 17148 ft 341 kts 216°
2026-04-21 04:34 33.73341 -119.41209 17493 ft 342 kts 217°
2026-04-21 04:34 33.71494 -119.42947 17782 ft 346 kts 217°
2026-04-21 04:35 33.69622 -119.44714 18163 ft 347 kts 217°
2026-04-21 04:35 33.67764 -119.46464 18480 ft 349 kts 217°
2026-04-21 04:35 33.65852 -119.48259 18779 ft 351 kts 217°
2026-04-21 04:35 33.63949 -119.50042 19081 ft 352 kts 217°
2026-04-21 04:36 33.62027 -119.51841 19385 ft 354 kts 217°
2026-04-21 04:36 33.60090 -119.53652 19697 ft 356 kts 217°
2026-04-21 04:36 33.58132 -119.55481 20030 ft 358 kts 217°
2026-04-21 04:36 33.56199 -119.57286 20359 ft 360 kts 217°